TimeCST,TemperatureF,Dew PointF,Humidity,Sea Level PressureIn,VisibilityMPH,Wind Direction,Wind SpeedMPH,Gust SpeedMPH,PrecipitationIn,Events,Conditions,WindDirDegrees,DateUTC
12:52 AM,36.0,30.0,79,30.42,8.0,ESE,4.6,-,N/A,,Clear,110,2012-11-18 06:52:00
1:52 AM,34.0,28.9,82,30.41,7.0,East,5.8,-,N/A,,Clear,100,2012-11-18 07:52:00
2:52 AM,35.1,30.0,82,30.41,7.0,East,4.6,-,N/A,,Clear,100,2012-11-18 08:52:00
3:52 AM,33.1,28.9,85,30.41,6.0,Calm,Calm,-,N/A,,Clear,0,2012-11-18 09:52:00
4:52 AM,32.0,28.0,85,30.42,4.0,Calm,Calm,-,N/A,,Clear,0,2012-11-18 10:52:00
5:52 AM,30.9,27.0,85,30.42,4.0,Calm,Calm,-,N/A,,Clear,0,2012-11-18 11:52:00
6:52 AM,30.0,26.1,85,30.43,4.0,Calm,Calm,-,N/A,,Clear,0,2012-11-18 12:52:00
7:52 AM,36.0,30.9,82,30.41,5.0,ESE,3.5,-,N/A,,Haze,110,2012-11-18 13:52:00
8:52 AM,44.1,35.1,71,30.42,9.0,ESE,5.8,-,N/A,,Clear,120,2012-11-18 14:52:00
9:52 AM,50.0,36.0,59,30.42,10.0,SSE,4.6,-,N/A,,Clear,150,2012-11-18 15:52:00
10:52 AM,53.6,35.6,51,30.40,10.0,South,6.9,-,N/A,,Clear,170,2012-11-18 16:52:00
11:52 AM,57.0,36.0,45,30.38,10.0,Variable,4.6,-,N/A,,Clear,0,2012-11-18 17:52:00
12:52 PM,59.0,34.0,39,30.36,10.0,SSE,5.8,-,N/A,,Clear,160,2012-11-18 18:52:00
1:52 PM,60.1,36.0,41,30.35,10.0,SSE,10.4,-,N/A,,Clear,160,2012-11-18 19:52:00
2:52 PM,60.1,36.0,41,30.33,10.0,SSE,9.2,-,N/A,,Clear,150,2012-11-18 20:52:00
3:52 PM,57.0,34.0,42,30.33,10.0,SSE,9.2,-,N/A,,Clear,160,2012-11-18 21:52:00
4:52 PM,52.0,34.0,50,30.33,10.0,SE,4.6,-,N/A,,Clear,130,2012-11-18 22:52:00
5:52 PM,50.0,34.0,54,30.34,10.0,SE,4.6,-,N/A,,Clear,130,2012-11-18 23:52:00
6:52 PM,50.0,35.1,57,30.35,10.0,SE,3.5,-,N/A,,Clear,130,2012-11-19 00:52:00
7:52 PM,44.1,35.1,71,30.34,10.0,SE,4.6,-,N/A,,Clear,140,2012-11-19 01:52:00
8:52 PM,44.1,34.0,68,30.33,10.0,Calm,Calm,-,N/A,,Clear,0,2012-11-19 02:52:00
9:52 PM,44.1,34.0,68,30.33,10.0,ESE,3.5,-,N/A,,Clear,110,2012-11-19 03:52:00
10:52 PM,41.0,34.0,76,30.32,10.0,SSE,4.6,-,N/A,,Clear,150,2012-11-19 04:52:00
11:52 PM,46.0,36.0,68,30.31,10.0,SSE,8.1,-,N/A,,Clear,150,2012-11-19 05:52:00